M I D A S
Marine Information and Data Acquisition System
Tripno 325 of the Zeeleeuw from 2002-08-12 06:44:28 to 2002-08-12 13:50:56
Back to CruiseResearch ActivitiesStationsMapUnderway DataData graphs

EquipmentUnitsComments
TimeDGPSUTC
LatitudeDGPSDM.mWGS84
LongitudeDGPSDM.mWGS84
SpeedMeteo Stationm/sRelative wind speed
DirectionMeteo StationdegRelative wind direction
TemperatureMeteo Stationdeg CelciusAir temperature
PressureMeteo StationPaAtmospheric pressure
HumidityMeteo Station%Relative humidity
Missing or incorrect values are displayed as -999
Metereological data collected by the RV Zeeleeuw from 2002-08-12 06:44:28 to 2002-08-12 13:50:56
                                                                                    Next 1000 lines
Time Latitude Longitude Speed Direction Temperature Pressure Humidity
2002-08-12 06:44:37 51°13.617 2°55.983 5.4 245 18.4 100840 78
2002-08-12 06:44:41 51°13.617 2°55.983 5.4 236 18.4 100840 78
2002-08-12 06:44:47 51°13.618 2°55.982 4.4 244 18.4 100840 78
2002-08-12 06:44:52 51°13.619 2°55.98 4.9 238 18.4 100840 78
2002-08-12 06:44:57 51°13.62 2°55.979 4.8 234 18.3 100830 78
2002-08-12 06:45:03 51°13.622 2°55.976 5.5 233 18.3 100830 78
2002-08-12 06:45:07 51°13.623 2°55.974 4.5 235 18.3 100830 78
2002-08-12 06:45:13 51°13.625 2°55.97 5 235 18.3 100830 78
2002-08-12 06:45:17 51°13.626 2°55.968 5.9 316 18.3 100830 78
2002-08-12 06:45:22 51°13.629 2°55.964 4.9 226 18.3 100830 78
2002-08-12 06:45:27 51°13.631 2°55.96 5.6 315 18.3 100830 79
2002-08-12 06:45:32 51°13.633 2°55.955 5.9 224 18.3 100830 79
2002-08-12 06:45:37 51°13.635 2°55.95 5.9 227 18.3 100840 79
2002-08-12 06:45:42 51°13.637 2°55.944 5.5 227 18.3 100840 79
2002-08-12 06:45:46 51°13.64 2°55.94 6.7 226 18.3 100830 79
2002-08-12 06:45:52 51°13.643 2°55.933 6.4 233 18.3 100830 79
2002-08-12 06:45:56 51°13.645 2°55.928 7.2 240 18.3 100830 79
2002-08-12 06:46:02 51°13.648 2°55.92 6.9 240 18.3 100830 79
2002-08-12 06:46:06 51°13.65 2°55.914 7.4 235 18.3 100840 79
2002-08-12 06:46:12 51°13.654 2°55.906 6.5 235 18.3 100840 79
2002-08-12 06:46:17 51°13.657 2°55.899 6.1 236 18.3 100830 79
2002-08-12 06:46:22 51°13.66 2°55.892 6 229 18.3 100830 79
2002-08-12 06:46:26 51°13.662 2°55.885 5.8 231 18.3 100840 79
2002-08-12 06:46:32 51°13.666 2°55.875 5.5 237 18.3 100840 79
2002-08-12 06:46:37 51°13.669 2°55.868 6.2 227 18.3 100830 79
2002-08-12 06:46:42 51°13.672 2°55.86 5.7 230 18.3 100830 79
2002-08-12 06:46:46 51°13.674 2°55.853 6.7 229 18.3 100830 79
2002-08-12 06:46:52 51°13.678 2°55.843 6 234 18.3 100830 79
2002-08-12 06:46:56 51°13.68 2°55.836 6.7 229 18.2 100840 79
2002-08-12 06:47:02 51°13.684 2°55.825 6.6 223 18.2 100840 79
2002-08-12 06:47:07 51°13.687 2°55.816 6.2 221 18.2 100840 79
2002-08-12 06:47:12 51°13.69 2°55.807 7.4 228 18.2 100840 79
2002-08-12 06:47:17 51°13.694 2°55.798 6.2 221 18.2 100830 79
2002-08-12 06:47:22 51°13.697 2°55.788 6.9 230 18.2 100830 79
2002-08-12 06:47:26 51°13.7 2°55.781 8.4 224 18.2 100830 79
2002-08-12 06:47:32 51°13.704 2°55.771 7.5 227 18.2 100830 79
2002-08-12 06:47:37 51°13.708 2°55.762 7.6 226 18.2 100830 80
2002-08-12 06:47:42 51°13.712 2°55.753 7.1 240 18.2 100830 80
2002-08-12 06:47:47 51°13.717 2°55.745 6.7 234 18.2 100830 80
2002-08-12 06:47:52 51°13.722 2°55.737 8.8 239 18.2 100830 80
2002-08-12 06:47:57 51°13.726 2°55.73 8 236 18.2 100840 80
2002-08-12 06:48:02 51°13.731 2°55.723 8.2 247 18.2 100840 80
2002-08-12 06:48:07 51°13.737 2°55.716 7.6 247 18.2 100840 80
2002-08-12 06:48:12 51°13.742 2°55.71 6.1 250 18.2 100840 80
2002-08-12 06:48:17 51°13.748 2°55.704 6.1 237 18.2 100830 80
2002-08-12 06:48:22 51°13.754 2°55.699 6.9 245 18.2 100830 80
2002-08-12 06:48:26 51°13.758 2°55.694 6.2 241 18.2 100840 79
2002-08-12 06:48:32 51°13.765 2°55.688 5.3 245 18.2 100840 79
2002-08-12 06:48:37 51°13.771 2°55.683 5.4 245 18.2 100840 80
2002-08-12 06:48:42 51°13.777 2°55.678 7.7 236 18.2 100840 80
2002-08-12 06:48:46 51°13.782 2°55.674 7.8 238 18.2 100840 80
2002-08-12 06:48:52 51°13.789 2°55.668 7 244 18.2 100840 80
2002-08-12 06:48:57 51°13.796 2°55.663 7 239 18.2 100840 80
2002-08-12 06:49:02 51°13.802 2°55.658 7.5 242 18.2 100840 80
2002-08-12 06:49:06 51°13.807 2°55.654 7.2 250 18.2 100840 80
2002-08-12 06:49:12 51°13.815 2°55.649 8 240 18.2 100840 80
2002-08-12 06:49:17 51°13.822 2°55.645 7.8 239 18.2 100840 80
2002-08-12 06:49:22 51°13.828 2°55.641 8.3 245 18.2 100840 80
2002-08-12 06:49:26 51°13.834 2°55.637 8.3 237 18.2 100840 80
2002-08-12 06:49:32 51°13.842 2°55.631 7.3 244 18.2 100840 80
2002-08-12 06:49:37 51°13.848 2°55.626 8.8 242 18.1 100830 80
2002-08-12 06:49:42 51°13.855 2°55.621 8.1 248 18.1 100830 80
2002-08-12 06:49:47 51°13.862 2°55.616 8.1 246 18.1 100840 80
2002-08-12 06:49:52 51°13.869 2°55.611 8.5 239 18.1 100840 80
2002-08-12 06:49:57 51°13.875 2°55.607 7.9 254 18.1 100840 80
2002-08-12 06:50:02 51°13.883 2°55.602 7 246 18.1 100840 80
2002-08-12 06:50:06 51°13.888 2°55.598 5.5 255 18.1 100840 80
2002-08-12 06:50:12 51°13.896 2°55.592 6.4 242 18.1 100840 80
2002-08-12 06:50:17 51°13.903 2°55.588 7.3 255 18.1 100840 80
2002-08-12 06:50:22 51°13.911 2°55.583 6.8 242 18.1 100840 80
2002-08-12 06:50:26 51°13.916 2°55.579 6.6 233 18.1 100840 81
2002-08-12 06:50:32 51°13.925 2°55.574 7.1 243 18.1 100840 81
2002-08-12 06:50:37 51°13.933 2°55.569 8.2 247 18.1 100850 81
2002-08-12 06:50:42 51°13.94 2°55.564 8.6 239 18.1 100850 81
2002-08-12 06:50:46 51°13.946 2°55.56 9 233 18.1 100840 81
2002-08-12 06:50:52 51°13.956 2°55.554 7.6 243 18.1 100840 81
2002-08-12 06:50:57 51°13.963 2°55.549 6.3 241 18.1 100850 81
2002-08-12 06:51:02 51°13.971 2°55.544 8.1 241 18.1 100850 81
2002-08-12 06:51:06 51°13.977 2°55.539 7.1 247 18.1 100840 81
2002-08-12 06:51:12 51°13.986 2°55.533 8.3 241 18.1 100840 81
2002-08-12 06:51:17 51°13.994 2°55.528 8.2 248 18.1 100850 81
2002-08-12 06:51:22 51°14.002 2°55.521 8.5 245 18.1 100850 81
2002-08-12 06:51:26 51°14.008 2°55.517 9.1 242 18.1 100840 81
2002-08-12 06:51:32 51°14.018 2°55.51 9.8 244 18.1 100840 81
2002-08-12 06:51:37 51°14.025 2°55.505 9.8 246 18.1 100840 81
2002-08-12 06:51:42 51°14.033 2°55.499 9.4 252 18.1 100840 81
2002-08-12 06:51:47 51°14.041 2°55.493 8.6 254 18.1 100840 81
2002-08-12 06:51:52 51°14.049 2°55.487 10 245 18.1 100840 81
2002-08-12 06:51:57 51°14.057 2°55.481 9.7 246 18.1 100840 81
2002-08-12 06:52:02 51°14.065 2°55.475 9 248 18.1 100840 81
2002-08-12 06:52:07 51°14.073 2°55.468 10.9 250 18.1 100840 81
2002-08-12 06:52:12 51°14.081 2°55.461 9.7 249 18.1 100840 81
2002-08-12 06:52:17 51°14.09 2°55.455 9.7 252 18.1 100840 81
2002-08-12 06:52:22 51°14.098 2°55.448 11 249 18.1 100840 81
2002-08-12 06:52:27 51°14.107 2°55.441 9.6 251 18.1 100840 82
2002-08-12 06:52:32 51°14.115 2°55.434 9.5 252 18.1 100840 82
2002-08-12 06:52:37 51°14.124 2°55.427 9.4 252 18.1 100830 81
2002-08-12 06:52:42 51°14.132 2°55.419 9.6 250 18.1 100830 81
2002-08-12 06:52:46 51°14.139 2°55.412 4.4 247 18 100830 81
2002-08-12 06:52:52 51°14.149 2°55.402 8.9 247 18 100830 81
2002-08-12 06:52:57 51°14.158 2°55.395 8.7 237 18 100840 81
2002-08-12 06:53:02 51°14.167 2°55.387 10.5 241 18 100840 81
2002-08-12 06:53:07 51°14.175 2°55.378 11 239 18 100840 82
2002-08-12 06:53:12 51°14.184 2°55.369 10.5 243 18 100840 82
2002-08-12 06:53:17 51°14.192 2°55.359 11 243 18.1 100840 82
2002-08-12 06:53:22 51°14.2 2°55.351 10.3 240 18.1 100840 82
2002-08-12 06:53:26 51°14.207 2°55.342 10 237 18 100840 82
2002-08-12 06:53:32 51°14.216 2°55.329 10.5 238 18 100840 82
2002-08-12 06:53:37 51°14.224 2°55.318 10.7 244 18 100840 82
2002-08-12 06:53:42 51°14.231 2°55.308 10.6 241 18 100840 82
2002-08-12 06:53:46 51°14.238 2°55.299 12 238 18 100840 82
2002-08-12 06:53:52 51°14.247 2°55.285 10.6 236 18 100840 82
2002-08-12 06:53:57 51°14.254 2°55.273 10.3 237 18 100840 82
2002-08-12 06:54:02 51°14.262 2°55.262 10 236 18 100840 82
2002-08-12 06:54:06 51°14.268 2°55.253 10.7 229 18 100830 82
2002-08-12 06:54:12 51°14.277 2°55.24 9.8 234 18 100830 82
2002-08-12 06:54:17 51°14.284 2°55.228 10.9 236 18 100830 82
2002-08-12 06:54:22 51°14.291 2°55.215 10.1 233 18 100830 82
2002-08-12 06:54:27 51°14.298 2°55.203 10 237 18 100840 82
2002-08-12 06:54:32 51°14.304 2°55.19 11 234 18 100840 82
2002-08-12 06:54:37 51°14.311 2°55.176 10.2 233 18 100850 82
2002-08-12 06:54:42 51°14.317 2°55.162 10.7 234 18 100850 82
2002-08-12 06:54:46 51°14.322 2°55.151 9.9 232 18 100840 83
2002-08-12 06:54:52 51°14.329 2°55.135 10.9 230 18 100840 83
2002-08-12 06:54:57 51°14.335 2°55.12 11.1 230 18 100850 83
2002-08-12 06:55:02 51°14.341 2°55.106 12.1 233 18 100850 83
2002-08-12 06:55:06 51°14.346 2°55.095 12 232 18 100850 83
2002-08-12 06:55:12 51°14.353 2°55.077 11 231 18 100850 83
2002-08-12 06:55:17 51°14.358 2°55.062 11.1 234 18.1 100850 83
2002-08-12 06:55:22 51°14.364 2°55.048 10.9 229 18.1 100850 83
2002-08-12 06:55:27 51°14.369 2°55.034 11 230 18 100850 82
2002-08-12 06:55:32 51°14.374 2°55.018 10.7 226 18 100850 82
2002-08-12 06:55:37 51°14.378 2°55.002 11.5 227 18 100850 82
2002-08-12 06:55:41 51°14.381 2°54.99 10.6 223 18 100850 82
2002-08-12 06:55:46 51°14.384 2°54.974 10.2 219 18 100840 82
2002-08-12 06:55:52 51°14.386 2°54.956 11.1 217 18 100840 82
2002-08-12 06:55:57 51°14.388 2°54.94 11 214 18 100850 82
2002-08-12 06:56:02 51°14.388 2°54.923 10.6 214 18 100850 82
2002-08-12 06:56:06 51°14.389 2°54.911 10.1 211 18 100850 82
2002-08-12 06:56:12 51°14.389 2°54.891 10.4 209 18 100850 82
2002-08-12 06:56:17 51°14.388 2°54.875 9.8 210 18 100850 82
2002-08-12 06:56:22 51°14.388 2°54.858 10 208 18 100850 82
2002-08-12 06:56:26 51°14.388 2°54.844 9.2 208 18 100840 82
2002-08-12 06:56:32 51°14.387 2°54.824 9.6 210 18 100840 82
2002-08-12 06:56:37 51°14.385 2°54.808 10.5 200 18 100850 82
2002-08-12 06:56:42 51°14.384 2°54.791 9.2 200 18 100850 82
2002-08-12 06:56:47 51°14.382 2°54.773 8.9 206 18 100850 82
2002-08-12 06:56:52 51°14.38 2°54.757 10.4 204 18 100850 82
2002-08-12 06:56:57 51°14.378 2°54.741 9.8 205 18 100850 82
2002-08-12 06:57:02 51°14.375 2°54.724 8.8 197 18 100850 82
2002-08-12 06:57:06 51°14.372 2°54.71 8.2 203 18 100850 83
2002-08-12 06:57:12 51°14.367 2°54.688 9.6 198 18 100850 83
2002-08-12 06:57:17 51°14.363 2°54.67 9.6 194 17.9 100850 82
2002-08-12 06:57:22 51°14.359 2°54.653 8.7 198 17.9 100850 82
2002-08-12 06:57:26 51°14.355 2°54.64 8.5 194 18 100850 82
2002-08-12 06:57:32 51°14.35 2°54.62 8.3 191 18 100850 82
2002-08-12 06:57:37 51°14.346 2°54.603 8.9 190 17.9 100850 82
2002-08-12 06:57:42 51°14.341 2°54.586 7.6 187 17.9 100850 82
2002-08-12 06:57:47 51°14.336 2°54.57 7.4 187 17.9 100840 82
2002-08-12 06:57:52 51°14.331 2°54.553 7.5 181 17.9 100840 82
2002-08-12 06:57:57 51°14.326 2°54.536 7.3 184 17.9 100850 82
2002-08-12 06:58:02 51°14.321 2°54.519 7.7 189 17.9 100850 82
2002-08-12 06:58:07 51°14.316 2°54.503 7.6 189 17.9 100850 82
2002-08-12 06:58:12 51°14.31 2°54.486 7.8 190 17.9 100850 82
2002-08-12 06:58:17 51°14.305 2°54.47 6.7 185 17.9 100850 82
2002-08-12 06:58:22 51°14.299 2°54.453 7.5 194 17.9 100850 82
2002-08-12 06:58:26 51°14.295 2°54.44 8.2 191 17.9 100860 83
2002-08-12 06:58:32 51°14.288 2°54.42 8 190 17.9 100860 83
2002-08-12 06:58:37 51°14.283 2°54.403 8.2 190 17.9 100850 82
2002-08-12 06:58:42 51°14.277 2°54.385 8.6 187 17.9 100850 82
2002-08-12 06:58:47 51°14.271 2°54.366 7.6 188 17.9 100850 83
2002-08-12 06:58:52 51°14.264 2°54.347 8.5 194 17.9 100850 83
2002-08-12 06:58:57 51°14.258 2°54.327 8.6 192 17.9 100850 83
2002-08-12 06:59:02 51°14.251 2°54.307 7.6 187 17.9 100850 83
2002-08-12 06:59:06 51°14.245 2°54.29 8.7 196 17.9 100850 82
2002-08-12 06:59:12 51°14.236 2°54.264 9.2 191 17.9 100850 82
2002-08-12 06:59:17 51°14.229 2°54.242 8.4 191 17.9 100850 82
2002-08-12 06:59:22 51°14.222 2°54.219 8.9 195 17.9 100850 82
2002-08-12 06:59:27 51°14.214 2°54.196 8.4 190 17.9 100850 82
2002-08-12 06:59:32 51°14.206 2°54.173 9.8 195 17.9 100850 82
2002-08-12 06:59:37 51°14.198 2°54.148 9.3 194 17.8 100850 82
2002-08-12 06:59:42 51°14.19 2°54.124 8.9 195 17.8 100850 82
2002-08-12 06:59:47 51°14.182 2°54.1 9.3 204 17.8 100850 82
2002-08-12 06:59:52 51°14.174 2°54.074 9.1 196 17.8 100850 82
2002-08-12 06:59:57 51°14.165 2°54.049 9.9 199 17.8 100850 82
2002-08-12 07:00:02 51°14.157 2°54.023 10.7 198 17.8 100850 82
2002-08-12 07:00:07 51°14.148 2°53.997 11.5 198 17.8 100850 82
2002-08-12 07:00:12 51°14.14 2°53.97 10.8 198 17.8 100850 82
2002-08-12 07:00:17 51°14.131 2°53.943 10.7 201 17.9 100850 82
2002-08-12 07:00:22 51°14.122 2°53.915 10.8 201 17.9 100850 82
2002-08-12 07:00:27 51°14.114 2°53.888 10.8 203 17.9 100850 82
2002-08-12 07:00:32 51°14.105 2°53.859 11.5 201 17.9 100850 82
2002-08-12 07:00:37 51°14.097 2°53.83 11.3 206 17.8 100850 82
2002-08-12 07:00:42 51°14.089 2°53.802 12.3 203 17.8 100850 82
2002-08-12 07:00:46 51°14.082 2°53.778 11.3 204 17.8 100850 82
2002-08-12 07:00:52 51°14.07 2°53.748 12.1 201 17.8 100850 82
2002-08-12 07:00:57 51°14.06 2°53.72 10.8 203 17.8 100860 82
2002-08-12 07:01:02 51°14.051 2°53.691 11.9 201 17.8 100860 82
2002-08-12 07:01:06 51°14.044 2°53.667 11.5 203 17.8 100850 81
2002-08-12 07:01:12 51°14.033 2°53.632 11.2 200 17.8 100850 81
2002-08-12 07:01:17 51°14.024 2°53.602 11.1 206 17.8 100850 82
2002-08-12 07:01:22 51°14.015 2°53.572 11.2 206 17.8 100850 82
2002-08-12 07:01:27 51°14.006 2°53.542 10.2 202 17.8 100860 82
2002-08-12 07:01:32 51°13.997 2°53.513 9.9 205 17.8 100860 82
2002-08-12 07:01:37 51°13.988 2°53.483 11.2 202 17.8 100850 81
2002-08-12 07:01:42 51°13.979 2°53.454 10.3 197 17.8 100850 81
2002-08-12 07:01:46 51°13.971 2°53.431 10.5 203 17.8 100860 81
2002-08-12 07:01:52 51°13.96 2°53.396 11.7 203 17.8 100860 81
2002-08-12 07:01:57 51°13.95 2°53.366 12.1 199 17.8 100860 81
2002-08-12 07:02:02 51°13.941 2°53.336 11.4 199 17.8 100860 81
2002-08-12 07:02:07 51°13.932 2°53.307 11.4 199 17.8 100860 82
2002-08-12 07:02:12 51°13.923 2°53.278 11.3 202 17.8 100860 82
2002-08-12 07:02:17 51°13.914 2°53.249 11 204 17.8 100850 82
2002-08-12 07:02:22 51°13.905 2°53.22 11.8 204 17.8 100850 82
2002-08-12 07:02:26 51°13.897 2°53.196 11.4 206 17.8 100850 82
2002-08-12 07:02:30 51°13.89 2°53.172 12.6 207 17.8 100850 82
2002-08-12 07:02:36 51°13.878 2°53.136 12.1 202 17.8 100860 82
2002-08-12 07:02:41 51°13.869 2°53.106 12 201 17.8 100860 82
2002-08-12 07:02:46 51°13.86 2°53.076 11.3 203 17.8 100860 82
2002-08-12 07:02:52 51°13.849 2°53.04 11.6 199 17.8 100860 82
2002-08-12 07:02:57 51°13.84 2°53.01 12.3 203 17.9 100860 83
2002-08-12 07:03:02 51°13.831 2°52.98 12.9 206 17.9 100860 83
2002-08-12 07:03:07 51°13.821 2°52.951 12.6 203 17.9 100850 83
2002-08-12 07:03:12 51°13.812 2°52.921 12.9 202 17.9 100850 83
2002-08-12 07:03:17 51°13.802 2°52.891 13.2 205 17.9 100860 83
2002-08-12 07:03:22 51°13.793 2°52.862 12.5 202 17.9 100860 83
2002-08-12 07:03:26 51°13.785 2°52.838 11.1 201 17.8 100850 83
2002-08-12 07:03:32 51°13.774 2°52.802 12.7 203 17.8 100850 83
2002-08-12 07:03:37 51°13.764 2°52.773 12.9 206 17.8 100850 83
2002-08-12 07:03:42 51°13.755 2°52.743 12.4 203 17.8 100850 83
2002-08-12 07:03:47 51°13.745 2°52.714 12.7 201 17.8 100860 82
2002-08-12 07:03:52 51°13.736 2°52.684 13 202 17.8 100860 82
2002-08-12 07:03:57 51°13.726 2°52.654 11.7 201 17.8 100860 83
2002-08-12 07:04:02 51°13.717 2°52.625 12.8 205 17.8 100860 83
2002-08-12 07:04:06 51°13.71 2°52.601 11.7 200 17.8 100860 83
2002-08-12 07:04:12 51°13.698 2°52.565 11.7 200 17.8 100860 83
2002-08-12 07:04:17 51°13.689 2°52.536 12.7 199 17.8 100860 83
2002-08-12 07:04:22 51°13.68 2°52.506 12 198 17.8 100860 83
2002-08-12 07:04:26 51°13.672 2°52.482 11.1 203 17.8 100860 83
2002-08-12 07:04:32 51°13.661 2°52.447 11.2 205 17.8 100860 83
2002-08-12 07:04:37 51°13.652 2°52.417 11.7 205 17.8 100860 83
2002-08-12 07:04:42 51°13.643 2°52.387 13.3 202 17.8 100860 83
2002-08-12 07:04:47 51°13.634 2°52.358 11 205 17.8 100860 83
2002-08-12 07:04:52 51°13.624 2°52.328 11.6 203 17.8 100860 83
2002-08-12 07:04:57 51°13.615 2°52.298 12 203 17.7 100860 83
2002-08-12 07:05:02 51°13.606 2°52.268 11.7 202 17.7 100860 83
2002-08-12 07:05:06 51°13.598 2°52.245 11.4 203 17.7 100860 83
2002-08-12 07:05:12 51°13.587 2°52.209 11.2 205 17.7 100860 83
2002-08-12 07:05:17 51°13.577 2°52.18 13.2 206 17.7 100860 83
2002-08-12 07:05:22 51°13.568 2°52.15 11.2 203 17.7 100860 83
2002-08-12 07:05:26 51°13.56 2°52.127 11.7 203 17.7 100860 82
2002-08-12 07:05:32 51°13.549 2°52.092 12.3 205 17.7 100860 82
2002-08-12 07:05:37 51°13.54 2°52.062 12.3 204 17.7 100860 83
2002-08-12 07:05:42 51°13.53 2°52.032 13.4 204 17.7 100860 83
2002-08-12 07:05:46 51°13.523 2°52.009 13 201 17.7 100860 83
2002-08-12 07:05:52 51°13.512 2°51.973 12.1 202 17.7 100860 83
2002-08-12 07:05:57 51°13.503 2°51.944 12.2 201 17.7 100870 83
2002-08-12 07:06:02 51°13.494 2°51.914 12.5 204 17.7 100870 83
2002-08-12 07:06:06 51°13.486 2°51.89 12.3 207 17.7 100860 82
2002-08-12 07:06:12 51°13.475 2°51.855 12.3 206 17.7 100860 82
2002-08-12 07:06:17 51°13.466 2°51.825 12.6 207 17.7 100860 82
2002-08-12 07:06:22 51°13.457 2°51.796 13.3 211 17.7 100860 82
2002-08-12 07:06:26 51°13.449 2°51.772 13 207 17.7 100870 83
2002-08-12 07:06:32 51°13.439 2°51.736 12 207 17.7 100870 83
2002-08-12 07:06:37 51°13.429 2°51.706 11.8 208 17.7 100870 82
2002-08-12 07:06:42 51°13.42 2°51.676 13.3 208 17.7 100870 82
2002-08-12 07:06:47 51°13.411 2°51.647 12.3 206 17.7 100870 83
2002-08-12 07:06:52 51°13.402 2°51.617 12.9 208 17.7 100870 83
2002-08-12 07:06:57 51°13.392 2°51.588 11.5 205 17.7 100870 83
2002-08-12 07:07:02 51°13.383 2°51.558 12.9 205 17.7 100870 83
2002-08-12 07:07:06 51°13.376 2°51.534 12.9 205 17.7 100860 82
2002-08-12 07:07:12 51°13.365 2°51.499 12.6 204 17.7 100860 82
2002-08-12 07:07:17 51°13.355 2°51.47 11.7 201 17.7 100870 83
2002-08-12 07:07:22 51°13.345 2°51.44 12.6 201 17.7 100870 83
2002-08-12 07:07:27 51°13.336 2°51.411 11.4 203 17.7 100870 82
2002-08-12 07:07:32 51°13.326 2°51.382 11.9 200 17.7 100870 82
2002-08-12 07:07:37 51°13.315 2°51.353 12.2 200 17.7 100870 83
2002-08-12 07:07:42 51°13.305 2°51.324 12.5 202 17.7 100870 83
2002-08-12 07:07:46 51°13.297 2°51.301 11.6 199 17.7 100870 83
2002-08-12 07:07:52 51°13.285 2°51.266 10.6 204 17.7 100870 83
2002-08-12 07:07:57 51°13.275 2°51.237 10.6 198 17.7 100870 83
2002-08-12 07:08:02 51°13.265 2°51.208 11.7 204 17.7 100870 83
2002-08-12 07:08:07 51°13.255 2°51.179 12.3 203 17.7 100870 83
2002-08-12 07:08:12 51°13.245 2°51.15 11.8 206 17.7 100870 83
2002-08-12 07:08:17 51°13.235 2°51.12 12.8 203 17.7 100880 83
2002-08-12 07:08:22 51°13.225 2°51.092 12.2 203 17.7 100880 83
2002-08-12 07:08:26 51°13.218 2°51.068 12 202 17.7 100870 83
2002-08-12 07:08:32 51°13.206 2°51.032 12.1 200 17.7 100870 83
2002-08-12 07:08:37 51°13.196 2°51.003 11.5 200 17.7 100870 83
2002-08-12 07:08:42 51°13.186 2°50.974 10.4 206 17.7 100870 83
2002-08-12 07:08:47 51°13.176 2°50.945 12.5 197 17.7 100870 83
2002-08-12 07:08:52 51°13.167 2°50.916 10.4 199 17.7 100870 83
2002-08-12 07:08:57 51°13.156 2°50.887 11.5 197 17.7 100870 83
2002-08-12 07:09:02 51°13.147 2°50.857 11 204 17.7 100870 83
2002-08-12 07:09:06 51°13.138 2°50.834 12.7 202 17.7 100870 83
2002-08-12 07:09:12 51°13.127 2°50.799 12.5 201 17.7 100870 83
2002-08-12 07:09:17 51°13.116 2°50.77 11.1 199 17.7 100870 83
2002-08-12 07:09:22 51°13.107 2°50.741 11.8 202 17.7 100870 83
2002-08-12 07:09:27 51°13.096 2°50.712 12.3 204 17.7 100870 83
2002-08-12 07:09:32 51°13.087 2°50.682 12.3 201 17.7 100870 83
2002-08-12 07:09:37 51°13.077 2°50.653 12.5 198 17.7 100870 84
2002-08-12 07:09:42 51°13.067 2°50.624 11.3 201 17.7 100870 84
2002-08-12 07:09:47 51°13.057 2°50.595 12.1 204 17.7 100870 84
2002-08-12 07:09:52 51°13.048 2°50.565 12.6 200 17.7 100870 84
2002-08-12 07:09:57 51°13.039 2°50.535 11.9 203 17.7 100870 83
2002-08-12 07:10:02 51°13.029 2°50.506 11.6 206 17.7 100870 83
2002-08-12 07:10:06 51°13.02 2°50.483 11.9 202 17.7 100870 83
2002-08-12 07:10:10 51°13.012 2°50.459 11.4 203 17.7 100870 83
2002-08-12 07:10:17 51°12.998 2°50.419 11.7 203 17.7 100870 83
2002-08-12 07:10:22 51°12.988 2°50.39 12 198 17.7 100870 83
2002-08-12 07:10:27 51°12.978 2°50.36 11.3 203 17.7 100880 84
2002-08-12 07:10:32 51°12.968 2°50.331 12.3 202 17.7 100880 84
2002-08-12 07:10:37 51°12.958 2°50.301 10.8 202 17.7 100870 83
2002-08-12 07:10:42 51°12.948 2°50.272 12 200 17.7 100870 83
2002-08-12 07:10:46 51°12.941 2°50.249 12 204 17.7 100880 83
2002-08-12 07:10:52 51°12.929 2°50.214 12.3 200 17.7 100880 83
2002-08-12 07:10:57 51°12.919 2°50.184 12.2 203 17.7 100870 83
2002-08-12 07:11:02 51°12.909 2°50.155 11.6 203 17.7 100870 83
2002-08-12 07:11:06 51°12.901 2°50.132 12.5 201 17.7 100880 84
2002-08-12 07:11:12 51°12.889 2°50.096 11.2 197 17.7 100880 84
2002-08-12 07:11:17 51°12.879 2°50.067 12.4 200 17.7 100870 83
2002-08-12 07:11:22 51°12.869 2°50.038 11.1 204 17.7 100870 83
2002-08-12 07:11:26 51°12.861 2°50.015 11.7 203 17.6 100870 83
2002-08-12 07:11:32 51°12.849 2°49.979 11.7 205 17.6 100870 83
2002-08-12 07:11:37 51°12.839 2°49.95 12.8 204 17.6 100870 83
2002-08-12 07:11:42 51°12.829 2°49.92 12.9 203 17.6 100870 83
2002-08-12 07:11:47 51°12.819 2°49.891 12.5 199 17.6 100870 83
2002-08-12 07:11:52 51°12.81 2°49.862 11.6 203 17.6 100870 83
2002-08-12 07:11:57 51°12.8 2°49.833 11.6 199 17.7 100880 84
2002-08-12 07:12:02 51°12.79 2°49.804 11.6 199 17.7 100880 84
2002-08-12 07:12:06 51°12.783 2°49.781 11 203 17.6 100870 83
2002-08-12 07:12:12 51°12.771 2°49.747 11.5 200 17.6 100870 83
2002-08-12 07:12:17 51°12.762 2°49.717 11.6 207 17.7 100870 83
2002-08-12 07:12:22 51°12.751 2°49.688 11.7 204 17.7 100870 83
2002-08-12 07:12:26 51°12.743 2°49.664 12.5 205 17.6 100880 83
2002-08-12 07:12:32 51°12.731 2°49.629 12.2 204 17.6 100880 83
2002-08-12 07:12:37 51°12.721 2°49.6 11.2 203 17.7 100870 83
2002-08-12 07:12:42 51°12.711 2°49.571 11.6 202 17.7 100870 83
2002-08-12 07:12:46 51°12.704 2°49.547 11.4 201 17.6 100870 83
2002-08-12 07:12:52 51°12.692 2°49.512 10.9 204 17.6 100870 83
2002-08-12 07:12:57 51°12.682 2°49.483 11.1 202 17.6 100870 83
2002-08-12 07:13:02 51°12.672 2°49.453 11 201 17.6 100870 83
2002-08-12 07:13:07 51°12.662 2°49.424 10.8 203 17.6 100870 83
2002-08-12 07:13:12 51°12.652 2°49.395 12.2 203 17.6 100870 83
2002-08-12 07:13:17 51°12.643 2°49.366 12.1 203 17.6 100880 82
2002-08-12 07:13:22 51°12.634 2°49.338 12 201 17.6 100880 82
2002-08-12 07:13:26 51°12.626 2°49.314 11.1 203 17.6 100880 83
2002-08-12 07:13:32 51°12.613 2°49.279 12.4 198 17.6 100880 83
2002-08-12 07:13:37 51°12.603 2°49.249 12 199 17.6 100880 82
2002-08-12 07:13:42 51°12.592 2°49.22 11.9 199 17.6 100880 82
2002-08-12 07:13:47 51°12.582 2°49.191 10.4 198 17.6 100880 82
2002-08-12 07:13:52 51°12.572 2°49.161 11.4 201 17.6 100880 82
2002-08-12 07:13:57 51°12.563 2°49.132 11.1 201 17.6 100880 82
2002-08-12 07:14:02 51°12.553 2°49.103 11.2 200 17.6 100880 82
2002-08-12 07:14:07 51°12.543 2°49.074 10.6 199 17.6 100880 83
2002-08-12 07:14:12 51°12.534 2°49.045 11.2 196 17.6 100880 83
2002-08-12 07:14:17 51°12.524 2°49.015 11.5 199 17.6 100880 82
2002-08-12 07:14:22 51°12.514 2°48.986 11.4 204 17.6 100880 82
2002-08-12 07:14:26 51°12.506 2°48.962 12.4 205 17.6 100880 82
2002-08-12 07:14:32 51°12.495 2°48.927 12.7 205 17.6 100880 82
2002-08-12 07:14:37 51°12.484 2°48.898 11.9 203 17.6 100870 83
2002-08-12 07:14:42 51°12.474 2°48.869 12.3 201 17.6 100870 83
2002-08-12 07:14:46 51°12.467 2°48.846 12.7 199 17.7 100880 83
2002-08-12 07:14:52 51°12.455 2°48.81 12 200 17.7 100880 83
2002-08-12 07:14:57 51°12.445 2°48.78 10.4 200 17.6 100880 83
2002-08-12 07:15:02 51°12.435 2°48.751 10.4 202 17.6 100880 83
2002-08-12 07:15:06 51°12.427 2°48.727 10.6 204 17.6 100870 82
2002-08-12 07:15:12 51°12.415 2°48.692 12.3 202 17.6 100870 82
2002-08-12 07:15:17 51°12.406 2°48.662 11.3 199 17.6 100880 82
2002-08-12 07:15:22 51°12.396 2°48.632 11.1 202 17.6 100880 82
2002-08-12 07:15:26 51°12.388 2°48.609 11 199 17.7 100880 82
2002-08-12 07:15:32 51°12.376 2°48.573 11.1 197 17.7 100880 82
2002-08-12 07:15:37 51°12.366 2°48.544 11.6 196 17.7 100880 82
2002-08-12 07:15:42 51°12.356 2°48.514 12.7 202 17.7 100880 82
2002-08-12 07:15:46 51°12.348 2°48.491 12.3 203 17.6 100880 82
2002-08-12 07:15:52 51°12.336 2°48.456 11.2 200 17.6 100880 82
2002-08-12 07:15:56 51°12.328 2°48.432 10.9 199 17.6 100880 82
2002-08-12 07:16:02 51°12.316 2°48.397 11.7 202 17.6 100880 82
2002-08-12 07:16:06 51°12.308 2°48.373 11.3 203 17.6 100880 82
2002-08-12 07:16:12 51°12.296 2°48.338 12.3 198 17.6 100880 82
2002-08-12 07:16:17 51°12.286 2°48.309 12.6 198 17.6 100880 82
2002-08-12 07:16:22 51°12.276 2°48.279 11.2 197 17.6 100880 82
2002-08-12 07:16:26 51°12.268 2°48.256 11.6 201 17.6 100880 82
2002-08-12 07:16:32 51°12.256 2°48.221 10.5 198 17.6 100880 82
2002-08-12 07:16:37 51°12.246 2°48.192 10.2 196 17.7 100880 82
2002-08-12 07:16:42 51°12.235 2°48.163 10 197 17.7 100880 82
2002-08-12 07:16:46 51°12.227 2°48.139 10.4 197 17.7 100880 82
2002-08-12 07:16:52 51°12.215 2°48.104 10.8 195 17.7 100880 82
2002-08-12 07:16:57 51°12.205 2°48.075 11.3 197 17.6 100880 82
2002-08-12 07:17:02 51°12.195 2°48.046 11.1 197 17.6 100880 82
2002-08-12 07:17:06 51°12.187 2°48.022 9 197 17.6 100890 82
2002-08-12 07:17:10 51°12.179 2°47.999 11.1 199 17.6 100890 82
2002-08-12 07:17:17 51°12.164 2°47.958 11.6 200 17.6 100890 82
2002-08-12 07:17:22 51°12.154 2°47.928 11.2 201 17.6 100890 82
2002-08-12 07:17:26 51°12.146 2°47.905 10.9 198 17.6 100880 81
2002-08-12 07:17:32 51°12.134 2°47.87 11.6 197 17.6 100880 81
2002-08-12 07:17:37 51°12.124 2°47.84 11.5 196 17.6 100890 82
2002-08-12 07:17:42 51°12.114 2°47.81 11.2 200 17.6 100890 82
2002-08-12 07:17:46 51°12.106 2°47.787 11.1 203 17.6 100880 82
2002-08-12 07:17:52 51°12.094 2°47.752 12.6 205 17.6 100880 82
2002-08-12 07:17:57 51°12.083 2°47.723 12.3 204 17.7 100890 82
2002-08-12 07:18:02 51°12.073 2°47.694 10.9 205 17.7 100890 82
2002-08-12 07:18:07 51°12.063 2°47.665 12 202 17.6 100890 82
2002-08-12 07:18:12 51°12.052 2°47.635 11.2 204 17.6 100890 82
2002-08-12 07:18:17 51°12.042 2°47.606 10.9 199 17.7 100890 82
2002-08-12 07:18:22 51°12.032 2°47.577 10.9 201 17.7 100890 82
2002-08-12 07:18:26 51°12.024 2°47.554 9.8 208 17.6 100890 82
2002-08-12 07:18:32 51°12.012 2°47.519 10.7 206 17.6 100890 82
2002-08-12 07:18:37 51°12.002 2°47.489 11.1 205 17.6 100890 82
2002-08-12 07:18:42 51°11.991 2°47.46 11.3 204 17.6 100890 82
2002-08-12 07:18:46 51°11.983 2°47.437 11.5 206 17.7 100890 82
2002-08-12 07:18:52 51°11.971 2°47.402 10.7 200 17.7 100890 82
2002-08-12 07:18:56 51°11.963 2°47.378 10.4 202 17.7 100890 82
2002-08-12 07:19:02 51°11.95 2°47.344 12 198 17.7 100890 82
2002-08-12 07:19:06 51°11.942 2°47.32 11.3 202 17.7 100890 83
2002-08-12 07:19:12 51°11.93 2°47.285 11.5 202 17.7 100890 83
2002-08-12 07:19:17 51°11.92 2°47.256 10.9 201 17.7 100880 82
2002-08-12 07:19:22 51°11.91 2°47.227 9.5 204 17.7 100880 82
2002-08-12 07:19:26 51°11.901 2°47.204 10.5 204 17.7 100890 82
2002-08-12 07:19:32 51°11.889 2°47.168 10.4 209 17.7 100890 82
2002-08-12 07:19:37 51°11.879 2°47.139 11.7 207 17.7 100890 82
2002-08-12 07:19:42 51°11.869 2°47.11 11.3 207 17.7 100890 82
2002-08-12 07:19:46 51°11.861 2°47.087 12.4 208 17.7 100900 82
2002-08-12 07:19:52 51°11.848 2°47.052 11.5 206 17.7 100900 82
2002-08-12 07:19:57 51°11.838 2°47.023 10.7 204 17.7 100900 83
2002-08-12 07:20:02 51°11.828 2°46.993 11.9 211 17.7 100900 83
2002-08-12 07:20:06 51°11.82 2°46.97 10.7 211 17.7 100890 82
2002-08-12 07:20:12 51°11.808 2°46.935 11.8 208 17.7 100890 82
2002-08-12 07:20:17 51°11.798 2°46.905 10.9 210 17.6 100890 82
2002-08-12 07:20:22 51°11.788 2°46.876 11.8 206 17.6 100890 82
2002-08-12 07:20:27 51°11.778 2°46.847 11.3 206 17.6 100890 82
2002-08-12 07:20:32 51°11.767 2°46.818 12.2 206 17.6 100890 82
2002-08-12 07:20:37 51°11.757 2°46.789 11.8 208 17.6 100890 82
2002-08-12 07:20:42 51°11.747 2°46.76 12.7 207 17.6 100890 82
2002-08-12 07:20:46 51°11.739 2°46.737 11.8 209 17.6 100900 82
2002-08-12 07:20:52 51°11.727 2°46.703 10.9 206 17.6 100900 82
2002-08-12 07:20:57 51°11.717 2°46.675 12 206 17.6 100890 82
2002-08-12 07:21:02 51°11.707 2°46.646 10.4 205 17.6 100890 82
2002-08-12 07:21:06 51°11.699 2°46.624 10.6 207 17.6 100900 82
2002-08-12 07:21:12 51°11.687 2°46.59 11.3 206 17.6 100900 82
2002-08-12 07:21:17 51°11.678 2°46.56 11.2 204 17.6 100900 82
2002-08-12 07:21:22 51°11.668 2°46.532 10.9 203 17.6 100900 82
2002-08-12 07:21:26 51°11.66 2°46.509 10.3 205 17.6 100890 82
2002-08-12 07:21:32 51°11.649 2°46.474 11 200 17.6 100890 82
2002-08-12 07:21:37 51°11.639 2°46.446 9.8 199 17.6 100890 82
2002-08-12 07:21:42 51°11.629 2°46.417 10.4 203 17.6 100890 82
2002-08-12 07:21:46 51°11.621 2°46.395 11.6 205 17.6 100900 82
2002-08-12 07:21:52 51°11.61 2°46.362 10.7 205 17.6 100900 82
2002-08-12 07:21:57 51°11.6 2°46.334 11.9 199 17.7 100900 82
2002-08-12 07:22:02 51°11.59 2°46.306 10.5 198 17.7 100900 82
2002-08-12 07:22:06 51°11.582 2°46.283 11.2 198 17.6 100900 82
2002-08-12 07:22:12 51°11.571 2°46.249 10.5 206 17.6 100900 82
2002-08-12 07:22:17 51°11.561 2°46.22 11.2 203 17.7 100890 82
2002-08-12 07:22:22 51°11.552 2°46.192 12.3 203 17.7 100890 82
2002-08-12 07:22:26 51°11.544 2°46.17 12 201 17.6 100890 81
2002-08-12 07:22:32 51°11.532 2°46.136 10.3 200 17.6 100890 81
2002-08-12 07:22:37 51°11.523 2°46.108 10.4 199 17.7 100890 82
2002-08-12 07:22:42 51°11.513 2°46.08 10.6 201 17.7 100890 82
2002-08-12 07:22:46 51°11.505 2°46.057 11 197 17.7 100890 82
2002-08-12 07:22:52 51°11.494 2°46.023 11.2 198 17.7 100890 82
2002-08-12 07:22:57 51°11.484 2°45.995 10.9 199 17.6 100900 81
2002-08-12 07:23:02 51°11.475 2°45.966 10.9 208 17.6 100900 81
2002-08-12 07:23:06 51°11.467 2°45.944 11.1 205 17.7 100890 82
2002-08-12 07:23:12 51°11.455 2°45.91 11 203 17.7 100890 82
2002-08-12 07:23:17 51°11.446 2°45.882 11.4 202 17.7 100900 81
2002-08-12 07:23:22 51°11.436 2°45.854 10.7 201 17.7 100900 81
2002-08-12 07:23:26 51°11.429 2°45.831 10.1 208 17.7 100900 82
2002-08-12 07:23:32 51°11.417 2°45.798 11.4 203 17.7 100900 82
2002-08-12 07:23:37 51°11.407 2°45.77 11.8 207 17.6 100900 81
2002-08-12 07:23:42 51°11.397 2°45.741 10.2 203 17.6 100900 81
2002-08-12 07:23:47 51°11.387 2°45.713 11.2 204 17.7 100900 82
2002-08-12 07:23:52 51°11.377 2°45.685 10.9 202 17.7 100900 82
2002-08-12 07:23:57 51°11.367 2°45.657 11 204 17.7 100900 82
2002-08-12 07:24:02 51°11.358 2°45.629 10.6 202 17.7 100900 82
2002-08-12 07:24:06 51°11.35 2°45.606 10.8 202 17.7 100900 82
2002-08-12 07:24:12 51°11.338 2°45.572 11.2 205 17.7 100900 82
2002-08-12 07:24:17 51°11.329 2°45.543 12.1 203 17.7 100900 82
2002-08-12 07:24:22 51°11.319 2°45.514 10.3 202 17.7 100900 82
2002-08-12 07:24:26 51°11.311 2°45.491 11.1 202 17.7 100900 82
2002-08-12 07:24:32 51°11.3 2°45.457 10.8 199 17.7 100900 82
2002-08-12 07:24:37 51°11.29 2°45.429 9.9 200 17.7 100900 82
2002-08-12 07:24:42 51°11.281 2°45.401 10.5 203 17.7 100900 82
2002-08-12 07:24:46 51°11.273 2°45.379 11.4 207 17.7 100900 82
2002-08-12 07:24:52 51°11.261 2°45.345 11.1 202 17.7 100900 82
2002-08-12 07:24:57 51°11.252 2°45.316 11.2 205 17.7 100900 82
2002-08-12 07:25:02 51°11.242 2°45.287 10.4 205 17.7 100900 82
2002-08-12 07:25:07 51°11.233 2°45.259 10.8 204 17.7 100910 82
2002-08-12 07:25:12 51°11.223 2°45.231 10.5 203 17.7 100910 82
2002-08-12 07:25:17 51°11.213 2°45.203 11.3 203 17.7 100910 82
2002-08-12 07:25:22 51°11.204 2°45.176 11 204 17.7 100910 82
2002-08-12 07:25:26 51°11.196 2°45.153 12.1 202 17.7 100900 82
2002-08-12 07:25:32 51°11.184 2°45.119 11.3 204 17.7 100900 82
2002-08-12 07:25:37 51°11.174 2°45.09 11.6 205 17.6 100900 82
2002-08-12 07:25:42 51°11.165 2°45.062 11.1 203 17.6 100900 82
2002-08-12 07:25:46 51°11.157 2°45.04 12.1 200 17.6 100910 82
2002-08-12 07:25:52 51°11.146 2°45.006 10.9 200 17.6 100910 82
2002-08-12 07:25:56 51°11.138 2°44.983 10.8 199 17.6 100900 82
2002-08-12 07:26:02 51°11.127 2°44.949 9.9 198 17.6 100900 82
2002-08-12 07:26:06 51°11.119 2°44.927 10.8 200 17.6 100900 82
2002-08-12 07:26:12 51°11.107 2°44.893 10.8 203 17.6 100900 82
2002-08-12 07:26:17 51°11.097 2°44.865 10.6 201 17.6 100900 81
2002-08-12 07:26:22 51°11.088 2°44.837 11.3 199 17.6 100900 81
2002-08-12 07:26:26 51°11.08 2°44.814 9.8 203 17.6 100900 81
2002-08-12 07:26:32 51°11.068 2°44.78 11.5 205 17.6 100900 81
2002-08-12 07:26:37 51°11.059 2°44.752 11.8 202 17.6 100910 82
2002-08-12 07:26:42 51°11.049 2°44.724 10.3 201 17.6 100910 82
2002-08-12 07:26:46 51°11.041 2°44.701 10.5 201 17.6 100900 82
2002-08-12 07:26:52 51°11.029 2°44.667 11.2 203 17.6 100900 82
2002-08-12 07:26:57 51°11.019 2°44.639 10.9 203 17.7 100910 82
2002-08-12 07:27:02 51°11.01 2°44.61 10.3 203 17.7 100910 82
2002-08-12 07:27:06 51°11.002 2°44.587 10.6 200 17.6 100900 82
2002-08-12 07:27:12 51°10.991 2°44.554 10.2 204 17.6 100900 82
2002-08-12 07:27:17 51°10.982 2°44.526 9.8 205 17.6 100910 82
2002-08-12 07:27:22 51°10.971 2°44.498 9.7 202 17.6 100910 82
2002-08-12 07:27:26 51°10.964 2°44.476 11.1 206 17.6 100910 82
2002-08-12 07:27:32 51°10.951 2°44.442 10.6 204 17.6 100910 82
2002-08-12 07:27:37 51°10.942 2°44.413 10.2 206 17.7 100910 82
2002-08-12 07:27:42 51°10.932 2°44.385 10.3 202 17.7 100910 82
2002-08-12 07:27:47 51°10.923 2°44.356 11.6 201 17.6 100910 82
2002-08-12 07:27:52 51°10.914 2°44.328 10.6 200 17.6 100910 82
2002-08-12 07:27:57 51°10.905 2°44.3 11 203 17.6 100910 82
2002-08-12 07:28:02 51°10.895 2°44.272 10.7 200 17.6 100910 82
2002-08-12 07:28:07 51°10.885 2°44.244 11.8 202 17.6 100910 82
2002-08-12 07:28:12 51°10.875 2°44.216 10.4 201 17.6 100910 82
2002-08-12 07:28:17 51°10.865 2°44.187 10.5 201 17.6 100910 82
2002-08-12 07:28:22 51°10.856 2°44.158 10.4 200 17.6 100910 82
2002-08-12 07:28:26 51°10.849 2°44.136 9.1 203 17.7 100910 82
2002-08-12 07:28:32 51°10.838 2°44.102 10.9 201 17.7 100910 82
2002-08-12 07:28:37 51°10.828 2°44.074 9.5 202 17.6 100910 82
2002-08-12 07:28:42 51°10.819 2°44.046 9.8 200 17.6 100910 82
2002-08-12 07:28:46 51°10.811 2°44.023 10.1 198 17.7 100910 83
2002-08-12 07:28:52 51°10.8 2°43.989 10.9 203 17.7 100910 83
2002-08-12 07:28:57 51°10.791 2°43.96 10.8 202 17.7 100910 82
2002-08-12 07:29:02 51°10.781 2°43.932 10.3 201 17.7 100910 82
2002-08-12 07:29:06 51°10.774 2°43.91 10.9 205 17.7 100910 83
2002-08-12 07:29:12 51°10.762 2°43.875 10.9 200 17.7 100910 83
2002-08-12 07:29:17 51°10.753 2°43.847 9.7 200 17.6 100910 82
2002-08-12 07:29:22 51°10.744 2°43.819 10.1 198 17.6 100910 82
2002-08-12 07:29:27 51°10.735 2°43.791 9.7 197 17.6 100920 82
2002-08-12 07:29:32 51°10.725 2°43.763 10.1 200 17.6 100920 82
2002-08-12 07:29:37 51°10.715 2°43.735 10.9 204 17.6 100920 82
2002-08-12 07:29:42 51°10.705 2°43.707 10.7 207 17.6 100920 82
2002-08-12 07:29:46 51°10.697 2°43.684 11.4 203 17.6 100910 83
2002-08-12 07:29:52 51°10.685 2°43.651 11.3 202 17.6 100910 83
2002-08-12 07:29:57 51°10.676 2°43.624 10.4 203 17.7 100920 83
2002-08-12 07:30:02 51°10.665 2°43.596 11.1 202 17.7 100920 83
2002-08-12 07:30:06 51°10.657 2°43.574 11.8 201 17.7 100920 83
2002-08-12 07:30:12 51°10.646 2°43.54 11.2 203 17.7 100920 83
2002-08-12 07:30:17 51°10.636 2°43.513 11.5 201 17.6 100910 82
2002-08-12 07:30:22 51°10.627 2°43.485 11.1 202 17.6 100910 82
2002-08-12 07:30:26 51°10.62 2°43.462 11.1 201 17.6 100920 82
2002-08-12 07:30:32 51°10.609 2°43.428 10.1 203 17.6 100920 82
2002-08-12 07:30:37 51°10.6 2°43.399 10.8 202 17.6 100920 82
2002-08-12 07:30:42 51°10.592 2°43.37 9.4 201 17.6 100920 82
2002-08-12 07:30:46 51°10.586 2°43.347 10.3 201 17.6 100920 82
2002-08-12 07:30:52 51°10.576 2°43.313 10.1 200 17.6 100920 82
2002-08-12 07:30:57 51°10.569 2°43.284 9.4 199 17.6 100920 82
2002-08-12 07:31:02 51°10.561 2°43.254 10.7 203 17.6 100920 82
2002-08-12 07:31:06 51°10.555 2°43.23 10.8 205 17.6 100920 82
2002-08-12 07:31:12 51°10.546 2°43.195 10.5 203 17.6 100920 82
2002-08-12 07:31:17 51°10.539 2°43.166 10.6 200 17.6 100920 82
2002-08-12 07:31:22 51°10.531 2°43.137 10 201 17.6 100920 82
2002-08-12 07:31:26 51°10.524 2°43.114 11.9 201 17.7 100920 82
2002-08-12 07:31:32 51°10.514 2°43.08 10.7 195 17.7 100920 82
2002-08-12 07:31:37 51°10.505 2°43.051 9.3 199 17.6 100920 82
2002-08-12 07:31:42 51°10.496 2°43.023 10 194 17.6 100920 82
2002-08-12 07:31:46 51°10.489 2°43.001 9.4 198 17.7 100920 82
2002-08-12 07:31:52 51°10.478 2°42.968 8.7 198 17.7 100920 82
2002-08-12 07:31:57 51°10.468 2°42.94 9.4 199 17.7 100920 82
2002-08-12 07:32:02 51°10.459 2°42.912 10.6 203 17.7 100920 82
2002-08-12 07:32:06 51°10.452 2°42.89 9.4 201 17.7 100920 82
2002-08-12 07:32:10 51°10.445 2°42.867 9.7 198 17.7 100920 82
2002-08-12 07:32:17 51°10.433 2°42.828 9 197 17.7 100920 83
2002-08-12 07:32:22 51°10.425 2°42.799 12.5 202 17.7 100920 83
2002-08-12 07:32:26 51°10.418 2°42.776 12.1 200 17.7 100920 83
2002-08-12 07:32:32 51°10.409 2°42.741 10.9 200 17.7 100920 83
2002-08-12 07:32:37 51°10.401 2°42.713 11.9 200 17.7 100930 83
2002-08-12 07:32:42 51°10.394 2°42.684 11.6 198 17.7 100930 83
2002-08-12 07:32:46 51°10.389 2°42.66 11.6 200 17.7 100920 82
2002-08-12 07:32:52 51°10.381 2°42.624 10.7 200 17.7 100920 82
2002-08-12 07:32:57 51°10.375 2°42.594 11.7 201 17.7 100920 82
2002-08-12 07:33:02 51°10.368 2°42.565 10 201 17.7 100920 82
2002-08-12 07:33:06 51°10.363 2°42.541 10.5 198 17.7 100920 82
2002-08-12 07:33:12 51°10.355 2°42.506 9.5 202 17.7 100920 82
2002-08-12 07:33:17 51°10.348 2°42.477 10.1 198 17.7 100920 82
2002-08-12 07:33:22 51°10.341 2°42.447 10.3 197 17.7 100920 82
2002-08-12 07:33:26 51°10.334 2°42.424 10.4 194 17.7 100920 82
2002-08-12 07:33:32 51°10.324 2°42.39 9.3 194 17.7 100920 82
2002-08-12 07:33:36 51°10.317 2°42.367 9.3 192 17.7 100930 82
2002-08-12 07:33:42 51°10.307 2°42.334 8.8 192 17.7 100930 82
2002-08-12 07:33:47 51°10.298 2°42.306 9.2 194 17.7 100920 82
2002-08-12 07:33:52 51°10.289 2°42.278 10.5 202 17.7 100920 82
2002-08-12 07:33:57 51°10.28 2°42.25 11.2 202 17.7 100920 82
2002-08-12 07:34:02 51°10.271 2°42.222 10 200 17.7 100920 82
2002-08-12 07:34:06 51°10.265 2°42.199 11 202 17.7 100920 82
2002-08-12 07:34:12 51°10.256 2°42.164 11.1 201 17.7 100920 82
2002-08-12 07:34:17 51°10.249 2°42.134 11.9 202 17.7 100920 82
2002-08-12 07:34:22 51°10.243 2°42.105 11.5 204 17.7 100920 82
2002-08-12 07:34:26 51°10.238 2°42.081 10.6 202 17.7 100930 82
2002-08-12 07:34:32 51°10.231 2°42.045 9.8 205 17.7 100930 82
2002-08-12 07:34:37 51°10.225 2°42.015 10.1 201 17.7 100930 82
2002-08-12 07:34:42 51°10.219 2°41.985 10 206 17.7 100930 82
2002-08-12 07:34:46 51°10.214 2°41.961 10.1 201 17.7 100930 82
2002-08-12 07:34:52 51°10.206 2°41.925 10 199 17.7 100930 82
2002-08-12 07:34:57 51°10.199 2°41.895 10.7 202 17.7 100930 82
2002-08-12 07:35:02 51°10.192 2°41.867 10.3 200 17.7 100930 82
2002-08-12 07:35:06 51°10.186 2°41.843 11.1 201 17.7 100930 82
2002-08-12 07:35:12 51°10.176 2°41.808 9.8 198 17.7 100930 82
2002-08-12 07:35:17 51°10.167 2°41.78 9.3 197 17.7 100930 82
2002-08-12 07:35:22 51°10.159 2°41.751 9.4 198 17.7 100930 82
2002-08-12 07:35:26 51°10.152 2°41.729 9.3 195 17.7 100930 82
2002-08-12 07:35:32 51°10.142 2°41.695 10.8 201 17.7 100930 82
2002-08-12 07:35:37 51°10.133 2°41.667 10.3 197 17.7 100930 81
2002-08-12 07:35:42 51°10.124 2°41.638 11.6 203 17.7 100930 81
2002-08-12 07:35:46 51°10.117 2°41.615 11.6 201 17.7 100930 82
2002-08-12 07:35:52 51°10.108 2°41.58 11.4 200 17.7 100930 82
2002-08-12 07:35:57 51°10.101 2°41.55 10.9 203 17.7 100930 82
2002-08-12 07:36:02 51°10.094 2°41.521 11.3 203 17.7 100930 82
2002-08-12 07:36:06 51°10.09 2°41.496 11.1 208 17.7 100930 82
2002-08-12 07:36:12 51°10.084 2°41.46 12.1 209 17.7 100930 82
2002-08-12 07:36:17 51°10.079 2°41.429 11.5 206 17.7 100930 82
2002-08-12 07:36:22 51°10.074 2°41.398 12.4 208 17.7 100930 82
2002-08-12 07:36:25 51°10.072 2°41.38 12.8 206 17.7 100930 82
2002-08-12 07:36:32 51°10.065 2°41.337 11.6 206 17.7 100930 82
2002-08-12 07:36:37 51°10.06 2°41.306 11.2 202 17.7 100930 82
2002-08-12 07:36:42 51°10.054 2°41.276 10.8 200 17.7 100930 82
2002-08-12 07:36:46 51°10.05 2°41.252 10.6 199 17.7 100930 82
2002-08-12 07:36:52 51°10.042 2°41.216 10.2 204 17.7 100930 82
2002-08-12 07:36:57 51°10.035 2°41.186 10.8 203 17.7 100930 82
2002-08-12 07:37:02 51°10.028 2°41.156 10.8 202 17.7 100930 82
2002-08-12 07:37:06 51°10.023 2°41.132 10.4 205 17.7 100930 82
2002-08-12 07:37:12 51°10.014 2°41.097 10.7 200 17.7 100930 82
2002-08-12 07:37:17 51°10.007 2°41.067 11.7 208 17.7 100930 82
2002-08-12 07:37:22 51°10 2°41.037 12.1 201 17.7 100930 82
2002-08-12 07:37:27 51°9.993 2°41.007 11.8 201 17.7 100930 82
2002-08-12 07:37:32 51°9.986 2°40.977 11.6 201 17.7 100930 82
2002-08-12 07:37:37 51°9.98 2°40.947 10.2 204 17.7 100930 82
2002-08-12 07:37:42 51°9.974 2°40.916 12 203 17.7 100930 82
2002-08-12 07:37:46 51°9.969 2°40.892 12.9 201 17.7 100930 82
2002-08-12 07:37:52 51°9.962 2°40.855 10.8 202 17.7 100930 82
2002-08-12 07:37:57 51°9.956 2°40.825 10.6 201 17.7 100930 82
2002-08-12 07:38:02 51°9.95 2°40.794 10.5 203 17.7 100930 82
2002-08-12 07:38:06 51°9.944 2°40.77 10.7 199 17.7 100930 82
2002-08-12 07:38:12 51°9.937 2°40.734 10.5 200 17.7 100930 82
2002-08-12 07:38:17 51°9.929 2°40.704 11.8 198 17.7 100930 82
2002-08-12 07:38:22 51°9.922 2°40.674 10.8 202 17.7 100930 82
2002-08-12 07:38:26 51°9.916 2°40.65 10.8 206 17.7 100930 82
2002-08-12 07:38:32 51°9.907 2°40.614 11.6 207 17.7 100930 82
2002-08-12 07:38:37 51°9.901 2°40.584 10.7 206 17.7 100930 82
2002-08-12 07:38:42 51°9.894 2°40.554 10.7 204 17.7 100930 82
2002-08-12 07:38:46 51°9.888 2°40.53 10.8 205 17.8 100930 83
2002-08-12 07:38:52 51°9.881 2°40.493 11.3 208 17.8 100930 83
2002-08-12 07:38:57 51°9.874 2°40.463 11.2 205 17.8 100940 82
2002-08-12 07:39:02 51°9.868 2°40.433 11.9 207 17.8 100940 82
2002-08-12 07:39:07 51°9.861 2°40.402 12.2 204 17.7 100930 83
2002-08-12 07:39:12 51°9.854 2°40.372 12.2 205 17.7 100930 83
2002-08-12 07:39:17 51°9.847 2°40.342 12.7 208 17.8 100940 83
2002-08-12 07:39:22 51°9.841 2°40.311 12.4 206 17.8 100940 83
2002-08-12 07:39:27 51°9.834 2°40.281 11.3 205 17.8 100930 83
2002-08-12 07:39:32 51°9.827 2°40.251 12.1 206 17.8 100930 83
2002-08-12 07:39:37 51°9.82 2°40.22 12.1 205 17.8 100930 83
2002-08-12 07:39:42 51°9.814 2°40.19 12.5 203 17.8 100930 83
2002-08-12 07:39:46 51°9.809 2°40.165 12.1 213 17.8 100930 83
2002-08-12 07:39:52 51°9.801 2°40.129 12.7 210 17.8 100930 83
2002-08-12 07:39:57 51°9.794 2°40.098 13 209 17.8 100930 83
2002-08-12 07:40:02 51°9.788 2°40.068 13.6 210 17.8 100930 83
2002-08-12 07:40:06 51°9.783 2°40.043 13.9 209 17.8 100930 83
2002-08-12 07:40:12 51°9.775 2°40.007 13.9 209 17.8 100930 83
2002-08-12 07:40:17 51°9.769 2°39.976 13.1 212 17.8 100930 83
2002-08-12 07:40:22 51°9.762 2°39.945 13.2 208 17.8 100930 83
2002-08-12 07:40:26 51°9.757 2°39.921 13 210 17.8 100930 83
2002-08-12 07:40:32 51°9.749 2°39.884 11.1 211 17.8 100930 83
2002-08-12 07:40:37 51°9.742 2°39.854 13.1 210 17.8 100930 83
2002-08-12 07:40:42 51°9.736 2°39.824 11.7 208 17.8 100930 83
2002-08-12 07:40:46 51°9.73 2°39.799 14.4 207 17.8 100930 83
2002-08-12 07:40:52 51°9.722 2°39.762 13.5 208 17.8 100930 83
2002-08-12 07:40:57 51°9.715 2°39.732 13.3 209 17.8 100930 83
2002-08-12 07:41:02 51°9.709 2°39.701 13.7 211 17.8 100930 83
2002-08-12 07:41:06 51°9.703 2°39.676 13.9 211 17.8 100930 83
2002-08-12 07:41:12 51°9.696 2°39.639 14.5 210 17.8 100930 83
2002-08-12 07:41:17 51°9.689 2°39.608 13.1 208 17.7 100930 83
2002-08-12 07:41:22 51°9.683 2°39.577 13.7 209 17.7 100930 83
2002-08-12 07:41:26 51°9.678 2°39.553 12.3 208 17.8 100930 83
2002-08-12 07:41:32 51°9.67 2°39.515 13.8 207 17.8 100930 83
2002-08-12 07:41:37 51°9.663 2°39.484 12.5 206 17.7 100930 83
2002-08-12 07:41:42 51°9.657 2°39.453 13.3 206 17.7 100930 83
2002-08-12 07:41:46 51°9.652 2°39.428 13 206 17.7 100930 83
2002-08-12 07:41:52 51°9.643 2°39.391 11.8 210 17.7 100930 83
2002-08-12 07:41:57 51°9.637 2°39.36 14 212 17.7 100930 83
2002-08-12 07:42:02 51°9.63 2°39.329 12.9 207 17.7 100930 83
2002-08-12 07:42:06 51°9.625 2°39.304 13.2 208 17.7 100930 83
2002-08-12 07:42:12 51°9.617 2°39.267 13 209 17.7 100930 83
2002-08-12 07:42:17 51°9.61 2°39.236 14 211 17.8 100940 84
2002-08-12 07:42:22 51°9.603 2°39.206 13 207 17.8 100940 84
2002-08-12 07:42:27 51°9.597 2°39.174 13.6 207 17.8 100930 84
2002-08-12 07:42:32 51°9.59 2°39.144 12.6 207 17.8 100930 84
2002-08-12 07:42:37 51°9.584 2°39.113 13.3 207 17.7 100930 83
2002-08-12 07:42:42 51°9.577 2°39.081 12.6 207 17.7 100930 83
2002-08-12 07:42:46 51°9.572 2°39.056 13.4 210 17.7 100930 83
2002-08-12 07:42:52 51°9.564 2°39.019 13.8 208 17.7 100930 83
2002-08-12 07:42:57 51°9.558 2°38.988 11.3 209 17.7 100930 83
2002-08-12 07:43:02 51°9.551 2°38.957 12.1 207 17.7 100930 83
2002-08-12 07:43:06 51°9.546 2°38.932 12.2 212 17.7 100930 83
2002-08-12 07:43:12 51°9.538 2°38.895 13.4 211 17.7 100930 83
2002-08-12 07:43:17 51°9.531 2°38.863 12.6 211 17.7 100940 83
2002-08-12 07:43:22 51°9.524 2°38.832 13.5 215 17.7 100940 83
2002-08-12 07:43:27 51°9.518 2°38.801 13.9 210 17.8 100940 84
2002-08-12 07:43:32 51°9.511 2°38.77 12.7 211 17.8 100940 84
2002-08-12 07:43:37 51°9.504 2°38.739 12.4 208 17.8 100940 84
2002-08-12 07:43:42 51°9.498 2°38.707 14.2 211 17.8 100940 84
2002-08-12 07:43:47 51°9.491 2°38.676 13.4 211 17.8 100930 83
2002-08-12 07:43:52 51°9.485 2°38.645 13 208 17.8 100930 83
2002-08-12 07:43:57 51°9.478 2°38.614 12.1 207 17.8 100940 83
2002-08-12 07:44:02 51°9.471 2°38.583 11.5 207 17.8 100940 83
2002-08-12 07:44:06 51°9.466 2°38.558 12.3 207 17.7 100930 83
2002-08-12 07:44:12 51°9.458 2°38.52 13 208 17.7 100930 83
2002-08-12 07:44:17 51°9.451 2°38.489 12.6 207 17.7 100940 83
2002-08-12 07:44:22 51°9.444 2°38.458 11.6 208 17.7 100940 83
2002-08-12 07:44:27 51°9.437 2°38.427 12.5 209 17.7 100940 83
2002-08-12 07:44:32 51°9.43 2°38.396 13 209 17.7 100940 83
2002-08-12 07:44:37 51°9.423 2°38.365 12.9 210 17.7 100940 83
2002-08-12 07:44:42 51°9.415 2°38.334 13.9 209 17.7 100940 83
2002-08-12 07:44:46 51°9.409 2°38.31 13.9 204 17.8 100940 83
2002-08-12 07:44:52 51°9.399 2°38.274 13.4 206 17.8 100940 83
2002-08-12 07:44:57 51°9.391 2°38.244 13.5 204 17.8 100940 83
2002-08-12 07:45:02 51°9.383 2°38.213 13.2 203 17.8 100940 83
2002-08-12 07:45:06 51°9.376 2°38.189 11.1 210 17.7 100940 83
2002-08-12 07:45:12 51°9.366 2°38.153 12 209 17.7 100940 83
2002-08-12 07:45:17 51°9.358 2°38.123 12.7 207 17.7 100940 83
2002-08-12 07:45:22 51°9.349 2°38.093 12.2 202 17.7 100940 83
2002-08-12 07:45:26 51°9.343 2°38.069 12.7 204 17.7 100940 83
2002-08-12 07:45:32 51°9.333 2°38.033 12.9 206 17.7 100940 83
2002-08-12 07:45:37 51°9.325 2°38.002 12.3 207 17.7 100940 83
2002-08-12 07:45:42 51°9.316 2°37.972 12.7 204 17.7 100940 83
2002-08-12 07:45:46 51°9.309 2°37.948 13 209 17.7 100940 83
2002-08-12 07:45:52 51°9.298 2°37.913 12 206 17.7 100940 83
2002-08-12 07:45:57 51°9.29 2°37.884 12.3 207 17.8 100940 83
2002-08-12 07:46:02 51°9.28 2°37.854 12.7 206 17.8 100940 83
2002-08-12 07:46:07 51°9.271 2°37.825 13.3 206 17.7 100940 83
2002-08-12 07:46:12 51°9.262 2°37.796 12 208 17.7 100940 83
2002-08-12 07:46:17 51°9.253 2°37.767 12 209 17.7 100950 83
2002-08-12 07:46:22 51°9.244 2°37.738 13.1 207 17.7 100950 83
2002-08-12 07:46:26 51°9.237 2°37.714 12.2 210 17.7 100940 83
2002-08-12 07:46:32 51°9.226 2°37.679 11.3 204 17.7 100940 83
2002-08-12 07:46:37 51°9.217 2°37.652 10.6 204 17.7 100940 83
2002-08-12 07:46:42 51°9.209 2°37.625 11.4 202 17.7 100940 83
2002-08-12 07:46:47 51°9.201 2°37.599 11.4 202 17.7 100950 83
2002-08-12 07:46:52 51°9.194 2°37.574 10.8 201 17.7 100950 83
2002-08-12 07:46:57 51°9.187 2°37.55 10.6 204 17.7 100940 83
2002-08-12 07:47:02 51°9.18 2°37.528 11.1 201 17.7 100940 83
2002-08-12 07:47:06 51°9.175 2°37.512 10.2 202 17.7 100950 83
2002-08-12 07:47:12 51°9.168 2°37.488 10.2 198 17.7 100950 83
2002-08-12 07:47:17 51°9.163 2°37.469 10.3 197 17.7 100950 83
2002-08-12 07:47:22 51°9.157 2°37.451 9.3 195 17.7 100950 83
2002-08-12 07:47:26 51°9.153 2°37.437 8.5 193 17.7 100950 83
2002-08-12 07:47:32 51°9.147 2°37.418 8.8 191 17.7 100950 83
2002-08-12 07:47:37 51°9.142 2°37.402 7.2 185 17.7 100950 83
2002-08-12 07:47:42 51°9.136 2°37.388 7.5 182 17.7 100950 83
2002-08-12 07:47:47 51°9.131 2°37.373 7.2 182 17.7 100950 83
2002-08-12 07:47:52 51°9.126 2°37.36 7.3 185 17.7 100950 83
2002-08-12 07:47:57 51°9.121 2°37.348 7 184 17.7 100950 82
2002-08-12 07:48:02 51°9.116 2°37.335 7.3 179 17.7 100950 82
2002-08-12 07:48:06 51°9.112 2°37.326 7.5 178 17.7 100950 82
2002-08-12 07:48:12 51°9.106 2°37.313 7.5 174 17.7 100950 82
2002-08-12 07:48:17 51°9.101 2°37.303 7.4 176 17.7 100950 83
2002-08-12 07:48:22 51°9.096 2°37.293 7.6 174 17.7 100950 83
2002-08-12 07:48:27 51°9.092 2°37.283 6.7 175 17.7 100960 83
2002-08-12 07:48:32 51°9.087 2°37.274 7.1 168 17.7 100960 83
2002-08-12 07:48:37 51°9.083 2°37.266 6.9 174 17.7 100960 83
2002-08-12 07:48:42 51°9.079 2°37.258 7.1 176 17.7 100960 83
2002-08-12 07:48:47 51°9.075 2°37.251 7.6 176 17.7 100960 84
2002-08-12 07:48:52 51°9.072 2°37.245 7.4 178 17.7 100960 84
2002-08-12 07:48:57 51°9.07 2°37.239 6 180 17.7 100960 84
2002-08-12 07:49:02 51°9.069 2°37.234 6 182 17.7 100960 84
2002-08-12 07:49:06 51°9.067 2°37.23 5.9 180 17.7 100960 83
2002-08-12 07:49:12 51°9.066 2°37.227 5.5 177 17.7 100960 83
2002-08-12 07:49:17 51°9.065 2°37.224 5.5 179 17.7 100970 83
2002-08-12 07:49:22 51°9.064 2°37.223 7.1 173 17.7 100970 83
2002-08-12 07:49:27 51°9.064 2°37.222 5.4 177 17.7 100970 83
2002-08-12 07:49:32 51°9.063 2°37.221 5.3 170 17.7 100970 83
2002-08-12 07:49:37 51°9.063 2°37.221 6 168 17.7 100970 84
2002-08-12 07:49:42 51°9.063 2°37.221 6.3 165 17.7 100970 84
2002-08-12 07:49:47 51°9.062 2°37.221 6.9 164 17.7 100970 84
2002-08-12 07:49:53 51°9.062 2°37.22 7.3 167 17.7 100970 84
2002-08-12 07:49:58 51°9.061 2°37.219 6.4 169 17.7 100970 83
2002-08-12 07:50:03 51°9.06 2°37.216 5.9 174 17.7 100970 83
2002-08-12 07:50:08 51°9.059 2°37.212 6.8 180 17.7 100970 83
2002-08-12 07:50:13 51°9.058 2°37.208 5.5 187 17.7 100970 83
2002-08-12 07:50:18 51°9.056 2°37.201 6.1 189 17.7 100970 83
2002-08-12 07:50:23 51°9.055 2°37.194 7.2 200 17.7 100970 83
2002-08-12 07:50:27 51°9.054 2°37.188 6.6 204 17.7 100970 83
2002-08-12 07:50:32 51°9.054 2°37.179 7.5 218 17.7 100970 83
2002-08-12 07:50:37 51°9.053 2°37.17 7.1 220 17.7 100970 83
2002-08-12 07:50:42 51°9.054 2°37.16 8.3 227 17.7 100970 83
2002-08-12 07:50:46 51°9.055 2°37.152 8.5 228 17.7 100970 83
2002-08-12 07:50:52 51°9.057 2°37.14 8.4 237 17.7 100970 83
2002-08-12 07:50:57 51°9.06 2°37.131 8.1 243 17.7 100970 83
2002-08-12 07:51:02 51°9.063 2°37.122 9.7 245 17.7 100970 83
2002-08-12 07:51:06 51°9.066 2°37.115 9.1 254 17.8 100970 84
2002-08-12 07:51:12 51°9.072 2°37.105 9.9 255 17.8 100970 84
2002-08-12 07:51:17 51°9.077 2°37.098 9.3 262 17.8 100970 84
2002-08-12 07:51:22 51°9.082 2°37.092 9.1 263 17.8 100970 84
2002-08-12 07:51:26 51°9.087 2°37.089 8.9 268 17.7 100970 84
2002-08-12 07:51:32 51°9.095 2°37.086 9.7 275 17.7 100970 84
2002-08-12 07:51:37 51°9.101 2°37.084 10 283 17.8 100960 84
2002-08-12 07:51:42 51°9.107 2°37.084 9.1 288 17.8 100960 84
2002-08-12 07:51:46 51°9.112 2°37.085 9.1 291 17.8 100970 84
2002-08-12 07:51:52 51°9.119 2°37.088 9.2 303 17.8 100970 84
2002-08-12 07:51:57 51°9.125 2°37.092 7.2 298 17.7 100960 83
2002-08-12 07:52:02 51°9.13 2°37.097 2.7 320 17.7 100960 83
2002-08-12 07:52:06 51°9.133 2°37.102 1.6 324 17.8 100970 83
2002-08-12 07:52:12 51°9.138 2°37.111 1.6 332 17.8 100970 83
2002-08-12 07:52:17 51°9.14 2°37.119 2 335 17.7 100980 83
2002-08-12 07:52:22 51°9.143 2°37.128 4.1 354 17.7 100980 83
2002-08-12 07:52:27 51°9.144 2°37.138 3.4 359 17.7 100970 83
2002-08-12 07:52:32 51°9.143 2°37.147 3.2 4 17.7 100970 83
2002-08-12 07:52:37 51°9.142 2°37.157 3.2 8 17.7 100980 83
2002-08-12 07:52:42 51°9.141 2°37.167 4.4 14 17.7 100980 83
2002-08-12 07:52:46 51°9.139 2°37.175 4.3 16 17.8 100980 83
2002-08-12 07:52:52 51°9.136 2°37.187 4.3 24 17.8 100980 83
2002-08-12 07:52:57 51°9.133 2°37.198 4.4 32 17.8 100980 84
2002-08-12 07:53:02 51°9.129 2°37.208 4.1 39 17.8 100980 84
2002-08-12 07:53:06 51°9.126 2°37.215 3.5 46 17.8 100980 83
2002-08-12 07:53:12 51°9.121 2°37.225 3.1 76 17.8 100980 83
2002-08-12 07:53:17 51°9.116 2°37.232 3 54 17.8 100980 83
2002-08-12 07:53:22 51°9.111 2°37.239 3.8 59 17.8 100980 83
2002-08-12 07:53:27 51°9.106 2°37.245 4.3 60 17.7 100980 83
2002-08-12 07:53:32 51°9.101 2°37.25 4.1 69 17.7 100980 83
2002-08-12 07:53:37 51°9.097 2°37.255 4 79 17.8 100990 83
2002-08-12 07:53:42 51°9.092 2°37.259 4.3 68 17.8 100990 83
2002-08-12 07:53:46 51°9.088 2°37.262 4.8 71 17.8 100980 83
2002-08-12 07:53:52 51°9.084 2°37.266 4.8 58 17.8 100980 83
2002-08-12 07:53:57 51°9.081 2°37.269 5 57 17.8 100980 82
2002-08-12 07:54:02 51°9.078 2°37.271 5.1 51 17.8 100980 82
2002-08-12 07:54:06 51°9.076 2°37.273 5.5 47 17.8 100980 82
2002-08-12 07:54:12 51°9.074 2°37.275 5.4 43 17.8 100980 82
2002-08-12 07:54:17 51°9.073 2°37.275 4.9 44 17.8 100990 83
2002-08-12 07:54:22 51°9.072 2°37.274 5.9 39 17.8 100990 83
2002-08-12 07:54:26 51°9.072 2°37.273 6.4 36 17.8 100990 83
2002-08-12 07:54:32 51°9.071 2°37.271 6.3 31 17.8 100990 83
2002-08-12 07:54:37 51°9.071 2°37.269 5.8 26 17.9 100990 83
2002-08-12 07:54:42 51°9.07 2°37.267 6.3 29 17.9 100990 83
2002-08-12 07:54:46 51°9.069 2°37.266 6.8 30 17.9 100990 82
2002-08-12 07:54:52 51°9.069 2°37.265 6.7 28 17.9 100990 82
2002-08-12 07:54:57 51°9.069 2°37.265 7.7 19 17.9 100990 82
2002-08-12 07:55:02 51°9.068 2°37.265 6.8 11 17.9 100990 82
2002-08-12 07:55:06 51°9.068 2°37.266 6.1 3 17.9 100990 82
2002-08-12 07:55:12 51°9.068 2°37.27 4.9 360 17.9 100990 82
2002-08-12 07:55:17 51°9.069 2°37.273 3.3 351 17.9 100990 82
2002-08-12 07:55:22 51°9.07 2°37.276 1.2 336 17.9 100990 82
2002-08-12 07:55:26 51°9.071 2°37.278 0.4 346 17.9 100990 82
2002-08-12 07:55:32 51°9.073 2°37.281 3.9 317 17.9 100990 82
2002-08-12 07:55:37 51°9.074 2°37.283 3.4 300 17.9 100980 82
2002-08-12 07:55:42 51°9.076 2°37.285 4.1 307 17.9 100980 82
2002-08-12 07:55:47 51°9.078 2°37.286 3.5 332 17.9 100980 82
2002-08-12 07:55:52 51°9.08 2°37.288 3.2 307 17.9 100980 82
2002-08-12 07:55:57 51°9.081 2°37.289 6.1 297 17.9 100980 82
2002-08-12 07:56:02 51°9.083 2°37.29 4.5 302 17.9 100980 82
2002-08-12 07:56:06 51°9.085 2°37.29 4.7 304 17.9 100980 82
2002-08-12 07:56:12 51°9.087 2°37.291 7.3 299 17.9 100980 82
2002-08-12 07:56:17 51°9.089 2°37.292 5.6 303 17.9 100980 83
2002-08-12 07:56:22 51°9.091 2°37.292 7.5 296 17.9 100980 83
2002-08-12 07:56:26 51°9.092 2°37.292 5.9 302 17.9 100980 83
2002-08-12 07:56:32 51°9.093 2°37.292 4.6 299 17.9 100980 83
2002-08-12 07:56:36 51°9.094 2°37.291 5.2 301 17.9 100990 83
2002-08-12 07:56:41 51°9.094 2°37.29 4.1 309 17.9 100990 83
2002-08-12 07:56:46 51°9.095 2°37.289 6.8 298 17.9 100980 83
2002-08-12 07:56:52 51°9.095 2°37.289 6.6 298 17.9 100980 83
2002-08-12 07:56:57 51°9.096 2°37.288 5.7 302 17.9 100990 84
2002-08-12 07:57:02 51°9.097 2°37.287 6.3 311 17.9 100990 84
2002-08-12 07:57:07 51°9.098 2°37.287 6.6 308 17.9 100990 84
2002-08-12 07:57:12 51°9.098 2°37.286 5.9 310 17.9 100990 84
2002-08-12 07:57:17 51°9.099 2°37.286 5.8 300 17.9 100990 83
2002-08-12 07:57:22 51°9.1 2°37.285 5.2 298 17.9 100990 83
2002-08-12 07:57:27 51°9.1 2°37.284 7 304 17.9 100990 83
2002-08-12 07:57:32 51°9.101 2°37.284 8 301 17.9 100990 83
2002-08-12 07:57:37 51°9.102 2°37.283 7.2 307 17.9 100990 83
2002-08-12 07:57:42 51°9.103 2°37.282 7.8 304 17.9 100990 83
2002-08-12 07:57:47 51°9.104 2°37.281 7.6 303 17.9 100980 83
2002-08-12 07:57:52 51°9.105 2°37.281 8.2 300 17.9 100980 83
2002-08-12 07:57:57 51°9.106 2°37.28 7.9 303 17.9 100990 83
2002-08-12 07:58:02 51°9.107 2°37.279 8.3 299 17.9 100990 83
2002-08-12 07:58:06 51°9.108 2°37.278 7.6 300 17.9 100990 82
2002-08-12 07:58:12 51°9.109 2°37.277 9.1 300 17.9 100990 82
2002-08-12 07:58:17 51°9.11 2°37.277 8 301 17.8 100990 82
2002-08-12 07:58:22 51°9.111 2°37.276 7.4 303 17.8 100990 82
2002-08-12 07:58:27 51°9.112 2°37.275 6.7 302 17.8 100980 82
2002-08-12 07:58:32 51°9.114 2°37.275 6.5 301 17.8 100980 82
2002-08-12 07:58:37 51°9.115 2°37.274 6.3 300 17.8 100990 82
2002-08-12 07:58:42 51°9.116 2°37.273 6.9 306 17.8 100990 82
2002-08-12 07:58:46 51°9.117 2°37.272 5.6 302 17.8 100990 82
2002-08-12 07:58:52 51°9.118 2°37.271 6.8 307 17.8 100990 82
2002-08-12 07:58:57 51°9.12 2°37.271 7.1 305 17.8 100990 82
2002-08-12 07:59:02 51°9.121 2°37.27 5.9 303 17.8 100990 82
2002-08-12 07:59:07 51°9.122 2°37.269 6.9 305 17.8 100990 82
2002-08-12 07:59:12 51°9.123 2°37.268 5.8 301 17.8 100990 82
2002-08-12 07:59:17 51°9.124 2°37.267 8.1 302 17.8 100990 82
2002-08-12 07:59:22 51°9.126 2°37.267 8.1 303 17.8 100990 82
2002-08-12 07:59:27 51°9.127 2°37.266 8.1 298 17.8 100990 82
2002-08-12 07:59:32 51°9.128 2°37.265 8.2 301 17.8 100990 82
2002-08-12 07:59:37 51°9.129 2°37.264 7.3 302 17.8 100990 82
2002-08-12 07:59:42 51°9.131 2°37.264 7.4 297 17.8 100990 82
2002-08-12 07:59:46 51°9.132 2°37.263 7.3 300 17.8 100990 82
2002-08-12 07:59:52 51°9.134 2°37.262 7.2 302 17.8 100990 82
2002-08-12 07:59:57 51°9.135 2°37.262 6 307 17.8 100990 82
2002-08-12 08:00:02 51°9.137 2°37.262 5.8 300 17.8 100990 82
2002-08-12 08:00:06 51°9.138 2°37.261 5.8 303 17.8 100990 82
2002-08-12 08:00:12 51°9.14 2°37.26 7.8 299 17.8 100990 82
2002-08-12 08:00:17 51°9.141 2°37.259 6.9 302 17.8 100990 82
2002-08-12 08:00:22 51°9.142 2°37.258 7.7 302 17.8 100990 82
2002-08-12 08:00:26 51°9.143 2°37.258 7.6 304 17.8 100980 82
2002-08-12 08:00:32 51°9.145 2°37.257 7.8 301 17.8 100980 82
2002-08-12 08:00:37 51°9.146 2°37.256 7.7 302 17.8 100990 82
2002-08-12 08:00:42 51°9.148 2°37.255 6.1 306 17.8 100990 82
2002-08-12 08:00:46 51°9.149 2°37.254 7.1 304 17.8 100990 82
2002-08-12 08:00:52 51°9.151 2°37.254 6.4 306 17.8 100990 82
2002-08-12 08:00:57 51°9.152 2°37.253 6.1 303 17.8 100990 82
2002-08-12 08:01:02 51°9.153 2°37.252 6 306 17.8 100990 82
2002-08-12 08:01:06 51°9.154 2°37.251 6.3 300 17.8 100990 82
2002-08-12 08:01:12 51°9.156 2°37.251 6.7 300 17.8 100990 82
2002-08-12 08:01:17 51°9.158 2°37.25 6.3 303 17.8 100990 82
2002-08-12 08:01:22 51°9.159 2°37.249 5.6 302 17.8 100990 82
2002-08-12 08:01:27 51°9.16 2°37.248 5.2 326 17.8 100990 82
2002-08-12 08:01:32 51°9.162 2°37.248 5.3 306 17.8 100990 82
2002-08-12 08:01:37 51°9.163 2°37.247 5.7 305 17.8 100990 82
2002-08-12 08:01:42 51°9.165 2°37.246 6.7 302 17.8 100990 82
2002-08-12 08:01:47 51°9.166 2°37.245 6.6 302 17.8 100990 82
2002-08-12 08:01:52 51°9.167 2°37.244 6.1 302 17.8 100990 82
2002-08-12 08:01:57 51°9.169 2°37.244 6.3 305 17.8 100990 82
2002-08-12 08:02:02 51°9.17 2°37.243 5.6 310 17.8 100990 82
2002-08-12 08:02:07 51°9.172 2°37.243 6.2 303 17.8 100990 82
2002-08-12 08:02:12 51°9.173 2°37.242 6.7 305 17.8 100990 82
2002-08-12 08:02:17 51°9.175 2°37.242 5.3 303 17.8 100990 82
2002-08-12 08:02:22 51°9.177 2°37.242 5.3 300 17.8 100990 82
2002-08-12 08:02:26 51°9.178 2°37.241 5.8 306 17.8 100990 82
2002-08-12 08:02:32 51°9.179 2°37.24 6.8 299 17.8 100990 82
2002-08-12 08:02:37 51°9.18 2°37.239 5.2 309 17.8 101000 82
2002-08-12 08:02:42 51°9.181 2°37.238 5.1 303 17.8 101000 82
2002-08-12 08:02:46 51°9.182 2°37.237 5.9 307 17.8 100990 83
2002-08-12 08:02:52 51°9.183 2°37.236 6 295 17.8 100990 83
2002-08-12 08:02:57 51°9.184 2°37.235 6.3 304 17.9 101000 83
2002-08-12 08:03:02 51°9.185 2°37.234 4.7 311 17.9 101000 83
2002-08-12 08:03:06 51°9.186 2°37.233 5.2 307 17.9 100990 83
2002-08-12 08:03:12 51°9.187 2°37.232 6 301 17.9 100990 83
2002-08-12 08:03:17 51°9.188 2°37.231 6.1 303 17.9 101000 83
2002-08-12 08:03:22 51°9.189 2°37.23 5.4 306 17.9 101000 83
2002-08-12 08:03:27 51°9.19 2°37.23 5.2 305 17.9 101000 83
2002-08-12 08:03:32 51°9.191 2°37.229 5.8 302 17.9 101000 83
2002-08-12 08:03:37 51°9.191 2°37.228 5.4 306 17.9 100990 83
2002-08-12 08:03:42 51°9.192 2°37.227 6.2 302 17.9 100990 83
2002-08-12 08:03:47 51°9.193 2°37.225 5.7 308 17.9 101000 83
2002-08-12 08:03:52 51°9.193 2°37.224 7.6 304 17.9 101000 83
2002-08-12 08:03:57 51°9.194 2°37.222 6.1 306 17.9 100990 83
2002-08-12 08:04:02 51°9.194 2°37.221 5.7 308 17.9 100990 83
2002-08-12 08:04:06 51°9.195 2°37.22 5.6 305 17.9 101000 83
2002-08-12 08:04:12 51°9.195 2°37.219 5.3 302 17.9 101000 83
2002-08-12 08:04:17 51°9.196 2°37.218 6.1 302 17.9 101000 83
2002-08-12 08:04:22 51°9.196 2°37.216 5.4 303 17.9 101000 83
2002-08-12 08:04:26 51°9.197 2°37.215 5.4 299 17.9 100990 82
2002-08-12 08:04:32 51°9.197 2°37.214 4.7 318 17.9 100990 82
2002-08-12 08:04:37 51°9.198 2°37.213 4.9 305 17.9 101000 82
2002-08-12 08:04:42 51°9.198 2°37.212 4.5 309 17.9 101000 82
2002-08-12 08:04:47 51°9.198 2°37.21 6 308 17.9 101000 82
2002-08-12 08:04:52 51°9.199 2°37.209 7.1 301 17.9 101000 82
2002-08-12 08:04:57 51°9.2 2°37.208 7.3 302 17.9 101000 82
2002-08-12 08:05:02 51°9.202 2°37.206 7.7 296 17.9 101000 82
2002-08-12 08:05:06 51°9.204 2°37.205 6.9 284 17.9 101000 83
2002-08-12 08:05:12 51°9.209 2°37.201 7.5 268 17.9 101000 83
2002-08-12 08:05:17 51°9.213 2°37.197 7.8 265 17.8 101000 82
2002-08-12 08:05:22 51°9.218 2°37.192 8 255 17.8 101000 82
2002-08-12 08:05:26 51°9.221 2°37.185 10.4 242 17.8 101000 83
2002-08-12 08:05:32 51°9.226 2°37.173 10 229 17.8 101000 83
2002-08-12 08:05:37 51°9.229 2°37.16 11.1 226 17.9 100990 83
2002-08-12 08:05:42 51°9.231 2°37.146 9.7 218 17.9 100990 83
2002-08-12 08:05:47 51°9.232 2°37.131 10.4 211 17.9 100990 83
2002-08-12 08:05:52 51°9.231 2°37.115 10.2 210 17.9 100990 83
2002-08-12 08:05:57 51°9.229 2°37.099 9.7 204 17.9 100990 83
2002-08-12 08:06:02 51°9.225 2°37.084 8.5 192 17.9 100990 83
2002-08-12 08:06:07 51°9.22 2°37.07 7 184 17.9 100990 83
2002-08-12 08:06:12 51°9.213 2°37.057 7.3 176 17.9 100990 83
2002-08-12 08:06:17 51°9.205 2°37.047 8 177 17.9 100990 83
2002-08-12 08:06:22 51°9.196 2°37.038 8.5 165 17.9 100990 83
2002-08-12 08:06:26 51°9.188 2°37.034 8.1 151 17.9 100980 83
2002-08-12 08:06:32 51°9.177 2°37.03 6 139 17.9 100980 83
2002-08-12 08:06:37 51°9.167 2°37.03 6 129 17.9 100980 83
2002-08-12 08:06:42 51°9.157 2°37.033 4.8 113 17.9 100980 83
2002-08-12 08:06:46 51°9.15 2°37.038 3.9 101 17.8 100980 83
2002-08-12 08:06:52 51°9.141 2°37.047 3.8 93 17.8 100980 83
2002-08-12 08:06:57 51°9.135 2°37.057 3 63 17.8 100990 83
2002-08-12 08:07:02 51°9.13 2°37.068 2.9 45 17.8 100990 83
2002-08-12 08:07:07 51°9.126 2°37.08 2.5 344 17.8 101000 83
2002-08-12 08:07:12 51°9.125 2°37.093 1 297 17.8 101000 83
2002-08-12 08:07:17 51°9.126 2°37.106 2.1 12 17.8 101000 83
2002-08-12 08:07:22 51°9.127 2°37.119 1.8 328 17.8 101000 83
2002-08-12 08:07:26 51°9.13 2°37.129 1.7 339 17.8 101010 84
2002-08-12 08:07:32 51°9.135 2°37.142 1.6 325 17.8 101010 84
2002-08-12 08:07:37 51°9.139 2°37.152 1.1 326 17.8 101010 84
2002-08-12 08:07:42 51°9.143 2°37.162 0.8 337 17.8 101010 84
2002-08-12 08:07:46 51°9.146 2°37.169 2.8 343 17.8 101010 84